This is the latest recevied weather packets stored in our database for station/object VR2OT-10. If no packets are shown the sender has not sent any weather packets the latest 10 day(s).
| Time | Temp. | Humidity | Pressure | Rain* | Wind** | Luminosity | Snow |
|---|---|---|---|---|---|---|---|
| 1778047338 | 22.78° C | 82% | 1012.7 hPa | - | 2.68 m/s, 90° | - | - |
| 1778046437 | 22.78° C | 83% | 1012.8 hPa | - | 3.13 m/s, 90° | - | - |
| 1778045537 | 22.78° C | 82% | 1013 hPa | - | 3.58 m/s, 135° | - | - |
| 1778044638 | 22.78° C | 82% | 1013.1 hPa | - | 3.13 m/s, 135° | - | - |
| 1778043739 | 22.78° C | 81% | 1013.2 hPa | - | 4.02 m/s, 90° | - | - |
| 1778042837 | 22.78° C | 81% | 1013.3 hPa | - | 3.13 m/s, 135° | - | - |
| 1778041939 | 22.78° C | 82% | 1013.5 hPa | - | 3.58 m/s, 90° | - | - |
| 1778041038 | 22.78° C | 84% | 1013.6 hPa | - | 4.02 m/s, 135° | - | - |
| 1778040138 | 22.22° C | 82% | 1013.7 hPa | - | 4.02 m/s, 90° | - | - |
| 1778039238 | 22.22° C | 82% | 1013.7 hPa | - | 4.47 m/s, 135° | - | - |
| 1778038338 | 22.22° C | 83% | 1013.7 hPa | - | 3.58 m/s, 135° | - | - |
| 1778037437 | 22.22° C | 82% | 1013.7 hPa | - | 4.02 m/s, 90° | - | - |
| 1778036538 | 22.22° C | 83% | 1013.7 hPa | - | 3.13 m/s, 90° | - | - |
| 1778035638 | 22.22° C | 83% | 1013.7 hPa | - | 3.13 m/s, 135° | - | - |
| 1778033838 | 22.22° C | 83% | 1013.7 hPa | - | 3.13 m/s, 135° | - | - |
| 1778032939 | 22.22° C | 85% | 1013.7 hPa | - | 2.68 m/s, 135° | - | - |
| 1778032038 | 22.22° C | 85% | 1013.7 hPa | - | 3.13 m/s, 90° | - | - |
| 1778031138 | 21.67° C | 86% | 1013.8 hPa | - | 3.13 m/s, 90° | - | - |
| 1778027539 | 21.67° C | 87% | 1013.9 hPa | - | 2.68 m/s, 90° | - | - |
| 1778026638 | 21.67° C | 86% | 1013.7 hPa | - | 3.58 m/s, 135° | - | - |
| 1778025738 | 21.67° C | 87% | 1013.5 hPa | - | 3.13 m/s, 90° | - | - |
| 1778024838 | 21.67° C | 86% | 1013.5 hPa | - | 3.58 m/s, 90° | - | - |
| 1778023938 | 21.67° C | 87% | 1013.4 hPa | - | 2.68 m/s, 90° | - | - |
| 1778023038 | 21.67° C | 88% | 1013.4 hPa | - | 3.13 m/s, 90° | - | - |
| 1778022138 | 21.67° C | 87% | 1013.2 hPa | - | 3.58 m/s, 135° | - | - |
* Rain since midnight (hover to see other rain measurements)
** Current wind speed in m/s (hover to see current wind gust speed)